Flag for Canada Weather past 2 weeks in Rae-Edzo, Northwest Territories, Canada

Now
54 °F

Cool.


Feels Like: 52 °F
Forecast: 46 / 59 °F
Wind: 7 mph from Northwest

Location: Lac La Martre

Current Time: Aug 21, 2014 at 2:25:19 PM

Latest Report: Aug 21, 2014 at 1:00 PM


Visibility: N/A

Pressure: 30.25 "Hg

Humidity: 58%

Dew point: 39 °F

Location of Rae-EdzoLocation

Historic Weather in Rae-Edzo — Graph

°F

Rae-Edzo temperature yesterday

Maximum temperature yesterday: 61 °F (at 5:00 PM)
Minimum temperature yesterday: 30 °F (at 6:00 AM)
Average temperature yesterday: 47 °F

Past Weeks' High & Low Weather Summary

 TemperatureHumidityPressure
High82 °F (Aug 16, 3:00 PM)97% (Aug 11, 6:00 AM)30.25 "Hg (Aug 11, 6:00 AM)
Low30 °F (Aug 20, 6:00 AM)31% (Aug 16, 5:00 PM)29.49 "Hg (Aug 16, 5:00 PM)
Average57 °F67%29.87 "Hg
* Reported Aug 6 1:00 PM — Aug 21 1:00 PM, Rae-Edzo, Weather by CustomWeather, © 2014

Note: Actual official high and low records may vary slightly from our data, if they occured in-between our weather recording intervals... More about our weather records

Advertising

Rae-Edzo weather history for previous 24 hours

 ConditionsComfort  
Time TempWeatherWind HumidityBarometerVisibility
1:00 PM
Aug 21
54 °FCool.7 mph58%30.25 "HgN/A
12:00 PM53 °FCool.8 mph66%30.25 "HgN/A
11:00 AM52 °FCool.7 mph68%30.25 "HgN/A
10:00 AM50 °FCool.7 mph74%30.24 "HgN/A
9:00 AM48 °FCool.5 mph77%30.23 "HgN/A
8:00 AM45 °FQuite cool.3 mph79%30.22 "HgN/A
7:00 AM37 °FChilly.3 mph77%30.22 "HgN/A
6:00 AM35 °FChilly.1 mph87%30.21 "HgN/A
5:00 AM37 °FChilly.5 mph90%30.20 "HgN/A
4:00 AM38 °FChilly.1 mph88%30.18 "HgN/A
3:00 AM42 °FQuite cool.1 mph78%30.17 "HgN/A
2:00 AM46 °FCool.3 mph66%30.16 "HgN/A
1:00 AM48 °FCool.6 mph66%30.14 "HgN/A
12:00 AM42 °FQuite cool.2 mph81%30.13 "HgN/A
11:00 PM
Aug 20
40 °FQuite cool.1 mph81%30.11 "HgN/A
10:00 PM48 °FCool.2 mph69%30.10 "HgN/A
9:00 PM55 °FRefreshingly cool.3 mph48%30.09 "HgN/A
8:00 PM60 °FRefreshingly cool.5 mph38%30.08 "HgN/A
7:00 PM60 °FRefreshingly cool.7 mph41%30.07 "HgN/A
6:00 PM60 °FRefreshingly cool.6 mph40%30.07 "HgN/A
5:00 PM61 °FRefreshingly cool.8 mph41%30.06 "HgN/A
4:00 PM60 °FRefreshingly cool.7 mph37%30.05 "HgN/A
3:00 PM59 °FRefreshingly cool.8 mph43%30.04 "HgN/A
2:00 PM59 °FRefreshingly cool.6 mph42%30.02 "HgN/A
Weather by CustomWeather, © 2014

See weather overviewHow to use our weather pages